Location: Fours
(44.3167°N, 6.7000°E)
Time: 11:20:34
(UTC+00:00)

Cosmos 2218 Rocket - Visible Passes

Search period start: 29 May 2022 00:00
Search period end: 08 June 2022 00:00
Orbit: 955 x 1007 km, 82.9° (Epoch: 28 May)

Date Brightness Start Highest point End Pass type
(mag) Time Alt. Az. Time Alt. Az. Time Alt. Az.
29 May 5.8 01:20:19 10° NNE 01:25:37 28° ENE 01:30:54 10° SE visible
29 May 4.3 03:05:22 10° NNW 03:11:21 50° W 03:17:24 10° SSW visible
30 May 4.9 01:46:52 10° N 01:52:56 49° ENE 01:59:02 10° SSE visible
31 May 6.5 00:30:12 10° NNE 00:33:37 15° ENE 00:37:01 10° E visible
31 May 4.1 02:13:45 10° N 02:20:04 87° E 02:26:25 10° S visible
01 Jun 5.9 00:56:00 10° NNE 01:01:11 26° ENE 01:06:23 10° SE visible
01 Jun 4.2 02:40:57 10° NNW 02:47:01 53° W 02:53:08 10° SSW visible
02 Jun 4.9 01:22:31 10° N 01:28:32 46° ENE 01:34:36 10° SSE visible
02 Jun 4.9 03:08:29 10° NNW 03:13:46 30° W 03:19:07 10° SW visible
03 Jun 6.4 00:06:02 10° NNE 00:09:09 14° ENE 00:12:18 10° E visible
03 Jun 4.1 01:49:22 10° N 01:55:41 82° E 02:02:03 10° S visible
04 Jun 5.9 00:31:42 10° NNE 00:36:46 25° ENE 00:41:51 10° ESE visible
04 Jun 4.2 02:16:31 10° NNW 02:22:40 57° W 02:28:43 11° SSW visible
05 Jun 5.0 00:58:09 10° N 01:04:08 43° ENE 01:10:09 10° SE visible
05 Jun 4.9 02:44:00 10° NNW 02:49:27 32° W 02:54:55 10° SW visible
05 Jun 6.4 23:41:53 10° NE 23:44:43 13° ENE 23:47:32 10° E visible
06 Jun 4.1 01:24:59 10° N 01:31:18 77° E 01:36:43 15° SSE visible
06 Jun 5.6 03:12:07 10° NW 03:16:03 17° W 03:20:00 10° WSW visible
07 Jun 5.9 00:07:24 10° NNE 00:12:21 23° ENE 00:17:18 10° ESE visible
07 Jun 4.1 01:52:06 10° NNW 01:58:18 61° W 02:03:09 17° SSW visible
